Location: Newark
(44.1906°N, 75.9681°W)
Time: 11:17:38
(UTC+00:00)

Envisat - Pass Details

Date: 27 January 2020
Orbit: 764 x 766 km, 98.1° (Epoch: 20 February)

Event Time Altitude Azimuth Distance (km) Brightness Sun altitude
Rises 22:53:30 0° 168° (SSE) 3,219 6.3 -8.7°
Reaches altitude 10° 22:55:47 10° 169° (S) 2,297 5.6 -9.1°
Maximum altitude 23:00:52 80° 257° (WSW) 782 3.2 -10.0°
Drops below altitude 10° 23:05:58 10° 345° (NNW) 2,313 5.5 -10.9°
Sets 23:08:17 0° 346° (NNW) 3,243 6.2 -11.3°
